Location: Edelsbach
(47.0167°N, 15.6000°E)
Time: 23:56:09
(UTC+00:00)

Cosmos 2034 Rocket - Pass Details

Date: 08 August 2020
Orbit: 958 x 1000 km, 82.9° (Epoch: 23 September)

Event Time Altitude Azimuth Distance (km) Brightness Sun altitude
Exits shadow 23:44:01 67° 191° (SSW) 1,056 3.8 -26.5°
Maximum altitude 23:44:56 88° 276° (W) 989 3.9 -26.5°
Drops below altitude 10° 23:51:18 10° 9° (N) 2,761 7.4 -26.3°
Sets 23:53:50 0° 9° (N) 3,719 8.4 -26.2°
